<?xml version="1.0" encoding="UTF-8" standalone="no" ?>
<gpx xmlns="http://www.topografix.com/GPX/1/1" xmlns:xsi="http://www.w3.org/2001/XMLSchema-instance" xsi:schemaLocation="http://www.topografix.com/GPX/1/1 http://www.topografix.com/GPX/1/1/gpx.xsd" version="1.1" creator="VisuGPX - https://www.visugpx.com">
  <metadata>
    <name>StCongard_MalestroitCanal_21km</name>
    <desc><![CDATA[gnerando idor:8157563_8308312]]></desc>
  </metadata>
  <trk>
    <name><![CDATA[Malestroit_Canal_21.4km-8157563]]></name>
    <extensions>
      <line xmlns="http://www.topografix.com/GPX/gpx_style/0/2">
        <color>0000FF</color>
        <width>4</width>
      </line>
    </extensions>
    <trkseg>
      <trkpt lat="47.7708" lon="-2.31751">
        <ele>19</ele>
        <time>2023-11-12T16:04:57Z</time>
      </trkpt>
      <trkpt lat="47.7706" lon="-2.31588">
        <ele>11</ele>
        <time>2023-11-12T16:07:26Z</time>
      </trkpt>
      <trkpt lat="47.77818" lon="-2.31438">
        <ele>10</ele>
        <time>2023-11-12T16:24:26Z</time>
      </trkpt>
      <trkpt lat="47.78109" lon="-2.31631">
        <ele>9</ele>
        <time>2023-11-12T16:31:31Z</time>
      </trkpt>
      <trkpt lat="47.78369" lon="-2.31734">
        <ele>11</ele>
        <time>2023-11-12T16:37:30Z</time>
      </trkpt>
      <trkpt lat="47.78562" lon="-2.31858">
        <ele>11</ele>
        <time>2023-11-12T16:42:11Z</time>
      </trkpt>
      <trkpt lat="47.78502" lon="-2.3206">
        <ele>31</ele>
        <time>2023-11-12T16:45:29Z</time>
      </trkpt>
      <trkpt lat="47.78334" lon="-2.32339">
        <ele>53</ele>
        <time>2023-11-12T16:51:05Z</time>
      </trkpt>
      <trkpt lat="47.78271" lon="-2.32313">
        <ele>53</ele>
        <time>2023-11-12T16:52:32Z</time>
      </trkpt>
      <trkpt lat="47.78248" lon="-2.32399">
        <ele>56</ele>
        <time>2023-11-12T16:53:55Z</time>
      </trkpt>
      <trkpt lat="47.78257" lon="-2.32622">
        <ele>67</ele>
        <time>2023-11-12T16:57:15Z</time>
      </trkpt>
      <trkpt lat="47.78415" lon="-2.32708">
        <ele>77</ele>
        <time>2023-11-12T17:01:00Z</time>
      </trkpt>
      <trkpt lat="47.78479" lon="-2.32665">
        <ele>74</ele>
        <time>2023-11-12T17:02:33Z</time>
      </trkpt>
      <trkpt lat="47.78637" lon="-2.32738">
        <ele>67</ele>
        <time>2023-11-12T17:06:14Z</time>
      </trkpt>
      <trkpt lat="47.78738" lon="-2.32798">
        <ele>70</ele>
        <time>2023-11-12T17:08:39Z</time>
      </trkpt>
      <trkpt lat="47.78911" lon="-2.33202">
        <ele>63</ele>
        <time>2023-11-12T17:15:49Z</time>
      </trkpt>
      <trkpt lat="47.79075" lon="-2.3324">
        <ele>56</ele>
        <time>2023-11-12T17:19:30Z</time>
      </trkpt>
      <trkpt lat="47.79096" lon="-2.33176">
        <ele>54</ele>
        <time>2023-11-12T17:20:34Z</time>
      </trkpt>
      <trkpt lat="47.79148" lon="-2.33146">
        <ele>50</ele>
        <time>2023-11-12T17:21:49Z</time>
      </trkpt>
      <trkpt lat="47.7915" lon="-2.33305">
        <ele>56</ele>
        <time>2023-11-12T17:24:11Z</time>
      </trkpt>
      <trkpt lat="47.79024" lon="-2.33614">
        <ele>60</ele>
        <time>2023-11-12T17:29:35Z</time>
      </trkpt>
      <trkpt lat="47.79032" lon="-2.33927">
        <ele>50</ele>
        <time>2023-11-12T17:34:16Z</time>
      </trkpt>
      <trkpt lat="47.79093" lon="-2.34047">
        <ele>42</ele>
        <time>2023-11-12T17:36:31Z</time>
      </trkpt>
      <trkpt lat="47.79194" lon="-2.34034">
        <ele>40</ele>
        <time>2023-11-12T17:38:46Z</time>
      </trkpt>
      <trkpt lat="47.79179" lon="-2.34111">
        <ele>42</ele>
        <time>2023-11-12T17:39:58Z</time>
      </trkpt>
      <trkpt lat="47.79254" lon="-2.34236">
        <ele>46</ele>
        <time>2023-11-12T17:42:28Z</time>
      </trkpt>
      <trkpt lat="47.79566" lon="-2.34566">
        <ele>65</ele>
        <time>2023-11-12T17:50:59Z</time>
      </trkpt>
      <trkpt lat="47.79914" lon="-2.34541">
        <ele>91</ele>
        <time>2023-11-12T17:58:44Z</time>
      </trkpt>
      <trkpt lat="47.799" lon="-2.35373">
        <ele>102</ele>
        <time>2023-11-12T18:11:10Z</time>
      </trkpt>
      <trkpt lat="47.79943" lon="-2.35596">
        <ele>102</ele>
        <time>2023-11-12T18:14:38Z</time>
      </trkpt>
      <trkpt lat="47.79782" lon="-2.36339">
        <ele>91</ele>
        <time>2023-11-12T18:26:18Z</time>
      </trkpt>
      <trkpt lat="47.79721" lon="-2.36601">
        <ele>89</ele>
        <time>2023-11-12T18:30:27Z</time>
      </trkpt>
      <trkpt lat="47.80312" lon="-2.38107">
        <ele>56</ele>
        <time>2023-11-12T18:56:30Z</time>
      </trkpt>
      <trkpt lat="47.80592" lon="-2.38038">
        <ele>19</ele>
        <time>2023-11-12T19:02:49Z</time>
      </trkpt>
      <trkpt lat="47.80837" lon="-2.38146">
        <ele>18</ele>
        <time>2023-11-12T19:08:30Z</time>
      </trkpt>
      <trkpt lat="47.80949" lon="-2.38098">
        <ele>17</ele>
        <time>2023-11-12T19:11:05Z</time>
      </trkpt>
      <trkpt lat="47.81197" lon="-2.38347">
        <ele>15</ele>
        <time>2023-11-12T19:17:44Z</time>
      </trkpt>
      <trkpt lat="47.81978" lon="-2.39326">
        <ele>19</ele>
        <time>2023-11-12T19:40:27Z</time>
      </trkpt>
      <trkpt lat="47.8186" lon="-2.39467">
        <ele>18</ele>
        <time>2023-11-12T19:43:49Z</time>
      </trkpt>
      <trkpt lat="47.81805" lon="-2.39665">
        <ele>17</ele>
        <time>2023-11-12T19:47:01Z</time>
      </trkpt>
      <trkpt lat="47.81652" lon="-2.39708">
        <ele>22</ele>
        <time>2023-11-12T19:50:28Z</time>
      </trkpt>
      <trkpt lat="47.81592" lon="-2.39776">
        <ele>25</ele>
        <time>2023-11-12T19:52:09Z</time>
      </trkpt>
      <trkpt lat="47.81615" lon="-2.39974">
        <ele>26</ele>
        <time>2023-11-12T19:55:09Z</time>
      </trkpt>
      <trkpt lat="47.81638" lon="-2.40175">
        <ele>28</ele>
        <time>2023-11-12T19:58:12Z</time>
      </trkpt>
      <trkpt lat="47.81696" lon="-2.40317">
        <ele>33</ele>
        <time>2023-11-12T20:00:41Z</time>
      </trkpt>
      <trkpt lat="47.8167" lon="-2.40502">
        <ele>49</ele>
        <time>2023-11-12T20:03:30Z</time>
      </trkpt>
      <trkpt lat="47.81739" lon="-2.40592">
        <ele>53</ele>
        <time>2023-11-12T20:05:32Z</time>
      </trkpt>
      <trkpt lat="47.81992" lon="-2.41617">
        <ele>36</ele>
        <time>2023-11-12T20:21:51Z</time>
      </trkpt>
      <trkpt lat="47.81869" lon="-2.41991">
        <ele>59</ele>
        <time>2023-11-12T20:28:04Z</time>
      </trkpt>
      <trkpt lat="47.81903" lon="-2.4221">
        <ele>69</ele>
        <time>2023-11-12T20:31:26Z</time>
      </trkpt>
      <trkpt lat="47.82079" lon="-2.42424">
        <ele>64</ele>
        <time>2023-11-12T20:36:29Z</time>
      </trkpt>
      <trkpt lat="47.82237" lon="-2.42549">
        <ele>68</ele>
        <time>2023-11-12T20:40:28Z</time>
      </trkpt>
      <trkpt lat="47.82217" lon="-2.42892">
        <ele>60</ele>
        <time>2023-11-12T20:45:36Z</time>
      </trkpt>
      <trkpt lat="47.82442" lon="-2.42862">
        <ele>44</ele>
        <time>2023-11-12T20:50:38Z</time>
      </trkpt>
      <trkpt lat="47.82621" lon="-2.42952">
        <ele>42</ele>
        <time>2023-11-12T20:54:50Z</time>
      </trkpt>
      <trkpt lat="47.82612" lon="-2.43428">
        <ele>49</ele>
        <time>2023-11-12T21:01:56Z</time>
      </trkpt>
      <trkpt lat="47.8286" lon="-2.43484">
        <ele>39</ele>
        <time>2023-11-12T21:07:31Z</time>
      </trkpt>
      <trkpt lat="47.82883" lon="-2.44003">
        <ele>32</ele>
        <time>2023-11-12T21:15:17Z</time>
      </trkpt>
      <trkpt lat="47.83024" lon="-2.43991">
        <ele>32</ele>
        <time>2023-11-12T21:18:25Z</time>
      </trkpt>
      <trkpt lat="47.83073" lon="-2.44128">
        <ele>38</ele>
        <time>2023-11-12T21:20:44Z</time>
      </trkpt>
      <trkpt lat="47.83165" lon="-2.44192">
        <ele>35</ele>
        <time>2023-11-12T21:23:00Z</time>
      </trkpt>
      <trkpt lat="47.83358" lon="-2.44231">
        <ele>32</ele>
        <time>2023-11-12T21:27:20Z</time>
      </trkpt>
      <trkpt lat="47.83352" lon="-2.44312">
        <ele>32</ele>
        <time>2023-11-12T21:28:33Z</time>
      </trkpt>
      <trkpt lat="47.83401" lon="-2.44338">
        <ele>37</ele>
        <time>2023-11-12T21:29:42Z</time>
      </trkpt>
      <trkpt lat="47.83393" lon="-2.44214">
        <ele>37</ele>
        <time>2023-11-12T21:31:34Z</time>
      </trkpt>
      <trkpt lat="47.83462" lon="-2.44012">
        <ele>44</ele>
        <time>2023-11-12T21:34:57Z</time>
      </trkpt>
      <trkpt lat="47.83422" lon="-2.43875">
        <ele>39</ele>
        <time>2023-11-12T21:37:11Z</time>
      </trkpt>
      <trkpt lat="47.83324" lon="-2.43836">
        <ele>28</ele>
        <time>2023-11-12T21:39:26Z</time>
      </trkpt>
      <trkpt lat="47.83283" lon="-2.43656">
        <ele>21</ele>
        <time>2023-11-12T21:42:16Z</time>
      </trkpt>
      <trkpt lat="47.83473" lon="-2.43686">
        <ele>25</ele>
        <time>2023-11-12T21:46:31Z</time>
      </trkpt>
      <trkpt lat="47.83701" lon="-2.43587">
        <ele>19</ele>
        <time>2023-11-12T21:51:48Z</time>
      </trkpt>
      <trkpt lat="47.83666" lon="-2.43132">
        <ele>16</ele>
        <time>2023-11-12T21:58:39Z</time>
      </trkpt>
      <trkpt lat="47.83813" lon="-2.43261">
        <ele>19</ele>
        <time>2023-11-12T22:02:26Z</time>
      </trkpt>
      <trkpt lat="47.83954" lon="-2.43188">
        <ele>20</ele>
        <time>2023-11-12T22:05:45Z</time>
      </trkpt>
      <trkpt lat="47.83966" lon="-2.4342">
        <ele>17</ele>
        <time>2023-11-12T22:09:14Z</time>
      </trkpt>
      <trkpt lat="47.84136" lon="-2.43716">
        <ele>17</ele>
        <time>2023-11-12T22:15:03Z</time>
      </trkpt>
      <trkpt lat="47.84412" lon="-2.44167">
        <ele>21</ele>
        <time>2023-11-12T22:24:09Z</time>
      </trkpt>
      <trkpt lat="47.84715" lon="-2.44295">
        <ele>17</ele>
        <time>2023-11-12T22:31:10Z</time>
      </trkpt>
      <trkpt lat="47.84865" lon="-2.44476">
        <ele>18</ele>
        <time>2023-11-12T22:35:27Z</time>
      </trkpt>
      <trkpt lat="47.8513" lon="-2.44604">
        <ele>24</ele>
        <time>2023-11-12T22:41:39Z</time>
      </trkpt>
      <trkpt lat="47.85299" lon="-2.44656">
        <ele>24</ele>
        <time>2023-11-12T22:45:29Z</time>
      </trkpt>
      <trkpt lat="47.85562" lon="-2.44617">
        <ele>24</ele>
        <time>2023-11-12T22:51:22Z</time>
      </trkpt>
      <trkpt lat="47.85763" lon="-2.44677">
        <ele>22</ele>
        <time>2023-11-12T22:55:56Z</time>
      </trkpt>
      <trkpt lat="47.8595" lon="-2.44673">
        <ele>24</ele>
        <time>2023-11-12T23:00:05Z</time>
      </trkpt>
      <trkpt lat="47.8614" lon="-2.44557">
        <ele>21</ele>
        <time>2023-11-12T23:04:39Z</time>
      </trkpt>
      <trkpt lat="47.86497" lon="-2.44621">
        <ele>29</ele>
        <time>2023-11-12T23:12:39Z</time>
      </trkpt>
    </trkseg>
  </trk>
</gpx>